Location: St Paul
(33.9360°N, 83.4200°W)
Time: 01:17:05
(UTC-05:00)

Cosmos 773 Rocket - Pass Details

Date: 06 October 2017
Orbit: 746 x 777 km, 74.1° (Epoch: 13 December)

Event Time Altitude Azimuth Distance (km) Brightness Sun altitude
Rises 19:32:30 0° 189° (S) 3,232 7.4 -5.3°
Reaches altitude 10° 19:34:53 10° 186° (S) 2,306 6.6 -5.8°
Maximum altitude 19:40:04 68° 104° (ESE) 827 4.0 -6.9°
Drops below altitude 10° 19:45:15 10° 23° (NNE) 2,301 6.2 -8.0°
Sets 19:47:38 0° 21° (NNE) 3,225 7.0 -8.5°
